Welcome to the New NWS' Forecast!
Most changes are behind the scenes, but click here for differences you might notice.

Regional Weather Roundup (RWR)

Issued by Gray - Portland, ME (GYX)

                            
618 
ASUS41 KGYX 200805
RWRGYX
WEATHER ROUNDUP FOR MAINE AND NEW HAMPSHIRE
NATIONAL WEATHER SERVICE GRAY ME
400 AM EDT FRI JUL 20 2018

MEZ002-005-006-010-012-015-018-020-021-024-026-027-029-200900-
MAINE
  
CITY           SKY/WX    TMP DP  RH WIND       PRES   REMARKS
PORTLAND       FAIR      57  52  83 CALM      30.14R                  
SANFORD        FAIR      49  48  97 CALM      30.14R                  
BAR HARBOR     FAIR      53  51  93 CALM      30.14R                  
WISCASSET      FAIR      52  52 100 CALM      30.15R                  
ROCKLAND         N/A     54  52  93 W3        30.13S                  
FRYEBURG       FAIR      50  50 100 CALM      30.15S                  
LEWISTONAUBURN FAIR      53  52  96 N3        30.14R                  
AUGUSTA        FAIR      56  52  86 CALM      30.14R                  
WATERVILLE     FAIR      54  51  90 CALM      30.12R                  
BANGOR         FAIR      55  52  89 CALM      30.14R                  
GREENVILLE       N/A     56  51  84 CALM      30.13R                  
MILLINOCKET    FAIR      55  51  86 CALM      30.13R                  
HOULTON        FAIR      50  49  96 CALM      30.09S                  
PRESQUE ISLE   FAIR      52  50  93 CALM      30.10R                  
FRENCHVILLE    FAIR      62  49  62 S6        30.07S                  
CARIBOU        FAIR      56  50  80 S5        30.08R                  
$$

NHZ002-005-008-009-011-012-014-200900-
NEW HAMPSHIRE
  
CITY           SKY/WX    TMP DP  RH WIND       PRES   REMARKS
PORTSMOUTH     CLEAR     56  52  87 CALM      30.12R                  
ROCHESTER      FAIR      54  54 100 NW3       30.13R                  
NASHUA         FAIR      56  54  93 NW3       30.15R                  
MANCHESTER     FAIR      59  53  80 CALM      30.13R                  
CONCORD        FAIR      54  52  93 CALM      30.15R                  
PLYMOUTH       FAIR      48  47  97 CALM      30.17R FOG              
BERLIN         FOG       47  46  97 CALM      30.18R VSB 1/4          
WHITEFIELD     FAIR      47  45  93 CALM      30.17R                  
JAFFREY        FAIR      54  53  97 CALM      30.17R                  
KEENE          FAIR      52  51  97 S5        30.17R                  
LEBANON        FAIR      53  48  83 CALM      30.16R                  
MT WASHINGTON  PTCLDY    55  32  41 NE7         N/A                   
$$

VTZ005-007-008-200900-
VERMONT
  
CITY           SKY/WX    TMP DP  RH WIND       PRES   REMARKS
ST JOHNSBURY     N/A     52  51  97 MISG      30.15R                  
MONTPELIER     FAIR      51  51 100 CALM      30.19S                  
BURLINGTON     FAIR      61  54  77 CALM      30.12R                  
$$

MAZ007-012-024-CTZ003-RIZ002-NYZ038-NYZ072-200900-
SOUTHERN NEW ENGLAND AND NY
  
CITY           SKY/WX    TMP DP  RH WIND       PRES   REMARKS
BOSTON         FAIR      67  59  75 SW7       30.14R                  
NANTUCKET      FAIR      54  53  97 CALM      30.15S                  
PROVIDENCE     FAIR      62  58  86 CALM      30.16R                  
HARTFORD       FAIR      56  54  93 N5        30.15R                  
ALBANY         FAIR      60  53  77 CALM      30.13S                  
NEW YORK CITY  FAIR      73  64  73 SW6       30.13R                  
$$

ANZ081-ANZ082-ANZ150-NHZ014-MEZ023>029-200900-
COASTAL MARINE OBSERVATIONS
  
STATION/POSITION TIME  TEMP    WIND        PRES    WAVE
                       AIR SEA DIR/SP/G            HT/PER
                 (UTC) (F)     (DEG/KT/KT) (MB)    (FT/S)
MOUNT DESERT ROC 0800   62     240/  9/  9 1020.9R
MATINICUS ROCK   0700   61     270/  6/  7 1020.1R
ISLE OF SHOALS   0700   64     260/  4/  4 1019.7R
JEFFREYS LEDGE   0736      68                N/A     2/ 9
$$

.............KEY..............
   WCI - WIND CHILL
   TC  - TEMPERATURE IN CELSIUS
   VSB - VISIBILITY IN MILES
   HX  - HEAT INDEX
   FAIR- INDICATES FEW OR NO CLOUDS BELOW 12,000 FT, WITH NO 
         SIGNIFICANT WEATHER AND/OR OBSTRUCTIONS TO VISIBILITY.